#timestamp,LO_Frequency,Hit,StdDev 
1613296815.0,286046977.7,N
1613296815.9,286046977.7,N
1613296835.8,286046958.4,Y
1613296855.6,286046954.4,P
1613296875.4,286046943.2,N
1613296895.3,286046930.9,N
1613296915.1,286046928.6,N
1613296935.9,286046929.1,N
1613296955.7,286046925.7,N
1613296975.5,286046917.8,Y
1613296995.4,286046961.4,P
1613297015.2,286046953.9,P
1613297035.0,286046946.1,P
1613297036.0,286046946.1,Y
1613297055.8,286046984.6,P
1613297075.6,286046980.9,N
1613297095.5,286046989.9,N
1613297115.3,286046994.8,N
1613297135.1,286046994.6,N
1613297155.9,286046998.0,N
1613297175.7,286047002.2,N
1613297195.6,286047010.1,N
1613297215.4,286047020.3,N
1613297235.2,286047025.7,N
1613297255.1,286047030.8,N
1613297256.0,286047030.8,N
1613297275.8,286047032.2,N
1613297295.6,286047032.0,N
1613297315.5,286047036.3,N
1613297335.3,286047032.3,N
1613297355.2,286047026.5,N
1613297375.9,286047025.7,N
1613297395.7,286047029.8,N
1613297415.6,286047032.1,N
1613297435.4,286047041.0,N
1613297455.2,286047043.1,N
1613297475.1,286047048.8,N
1613297476.0,286047048.8,N
1613297495.8,286047053.4,N
1613297515.7,286047065.5,N
1613297535.5,286047076.9,Y
1613297555.3,286047067.8,P
1613297575.2,286047078.0,P
1613297595.0,286047083.3,P
1613297595.9,286047083.3,Y
1613297615.8,286047022.2,P
1613297635.6,286047029.4,N
1613297655.4,286047025.5,N
1613297675.3,286047026.3,N
1613297695.1,286047028.3,N
1613297715.8,286047028.4,N
1613297735.7,286047026.2,N
1613297755.5,286047023.3,N
1613297775.4,286047023.6,N
1613297795.2,286047018.7,N
1613297815.0,286047017.4,N
1613297815.9,286047017.4,N
1613297835.8,286047015.8,N
1613297855.6,286047021.1,N
1613297875.5,286047021.0,N
1613297895.3,286047012.8,N
1613297915.1,286047004.9,N
1613297935.9,286046993.2,N
1613297955.7,286046972.7,N
1613297975.5,286046959.9,N
1613297995.4,286046946.5,N
1613298015.2,286046930.8,N
1613298035.1,286046920.5,N
1613298036.0,286046920.5,N
1613298055.8,286046917.4,N
1613298075.6,286046901.2,N
1613298095.5,286046889.5,N
1613298115.3,286046884.3,N
1613298135.1,286046881.7,N
1613298155.9,286046881.5,N
1613298175.7,286046871.9,N
1613298195.6,286046884.2,N
1613298215.4,286046896.2,N
1613298235.2,286046897.9,N
1613298255.1,286046890.3,N
1613298256.0,286046890.3,N
1613298275.8,286046893.4,N
1613298295.6,286046888.5,N
1613298315.5,286046891.5,N
1613298335.3,286046881.3,N
1613298355.2,286046880.1,N
1613298375.9,286046879.2,N
1613298395.7,286046870.7,N
1613298415.6,286046869.1,N
1613298435.4,286046862.6,Y
1613298455.3,286046954.8,P
1613298475.1,286046960.7,N
1613298476.0,286046960.7,N
1613298495.8,286046963.4,N
1613298515.7,286046966.7,N
1613298535.5,286046954.6,N
1613298555.3,286046944.8,Y
1613298575.2,286046985.5,P
1613298595.2,286046991.8,N
1613298615.1,286046986.3,N
1613298616.0,286046996.2,N
1613298635.8,286047007.8,N
1613298655.6,286047000.4,N
1613298675.5,286047004.2,N
1613298695.3,286046995.8,N
1613298715.2,286046980.7,N
1613298735.9,286046978.0,N
1613298755.7,286046973.6,N
1613298775.6,286046964.6,N
1613298795.4,286046963.3,N
1613298815.2,286046963.2,N
1613298835.1,286046960.1,N
1613298836.0,286046960.1,N
1613298855.8,286046960.4,N
1613298875.7,286046960.6,N
1613298895.5,286046976.8,N
1613298915.3,286046986.7,N
1613298935.2,286046997.6,N
1613298955.0,286047004.0,N
1613298955.9,286047004.0,N
1613298975.8,286047012.4,N
1613298995.6,286047007.7,N
1613299015.4,286047022.7,N
1613299035.3,286047019.8,N
1613299055.1,286047012.0,N
1613299075.8,286047003.6,N
1613299095.7,286046998.4,N
1613299115.5,286046996.0,N
1613299135.4,286046998.8,N
1613299155.2,286046986.4,N
1613299175.0,286046969.8,N
1613299175.9,286046969.8,N
1613299195.8,286046971.7,N
1613299215.6,286046968.8,N
1613299235.4,286046953.5,N
1613299255.3,286046953.7,N
1613299275.1,286046955.7,N
1613299295.9,286046947.1,N
1613299315.7,286046941.0,N
1613299335.5,286046943.0,N
1613299355.4,286046947.2,N
1613299375.2,286046962.9,N
1613299395.0,286046976.1,N
1613299395.9,286046976.1,N
1613299415.8,286046982.5,N
1613299435.6,286046989.9,N
1613299455.5,286046979.9,N
1613299475.3,286046972.0,N
1613299495.1,286046975.6,N
1613299515.9,286046983.3,N
1613299535.7,286046989.0,N
1613299555.5,286046980.9,N
1613299575.4,286046966.2,N
1613299595.2,286046969.6,N
1613299615.1,286046981.1,N
1613299616.0,286046986.3,N
1613299635.8,286046985.1,N
1613299655.6,286046976.1,N
1613299675.5,286046967.3,N
1613299695.3,286046972.6,N
1613299715.1,286046978.4,N
1613299735.9,286046979.7,N
1613299755.7,286046977.0,N
1613299775.6,286046961.4,N
1613299795.4,286046967.5,N
1613299815.2,286046971.6,N
1613299835.1,286046969.6,N
1613299836.0,286046969.6,N
1613299855.8,286046974.1,N
1613299875.6,286046978.7,N
1613299895.5,286046991.9,N
1613299915.3,286046959.2,Y
1613299935.2,286047008.4,P
1613299955.9,286047007.3,N
1613299975.7,286047001.5,N
1613299995.6,286046979.1,N
1613300015.4,286046973.8,N
1613300035.3,286046975.9,N
1613300055.1,286046972.7,N
1613300056.0,286046972.7,N
1613300075.8,286046962.6,N
1613300095.7,286046957.1,N
1613300115.5,286046953.0,N
1613300135.3,286046959.3,N
1613300155.2,286046959.4,N
1613300175.0,286046954.2,N
1613300175.9,286046954.2,N
1613300195.8,286046943.7,Y
1613300215.6,286046976.3,P
1613300235.4,286046974.6,P
1613300255.3,286046968.2,P
1613300275.1,286046978.4,Y
1613300295.9,286047003.2,P
1613300315.7,286046997.5,N
1613300335.5,286047011.9,N
1613300355.4,286047003.5,N
1613300375.2,286047007.3,N
1613300395.1,286047007.8,N
1613300396.0,286047007.8,N
